CZ-6A DEB, 55552

Orbit data source: Space-Track

CZ-6A DEB, 55552 is space debris in SSO originally from a launch on Fri, 11 Nov 2022 UTC launched from the Taiyaun Space Center, China (TSC). Debris objects in space refer to the collection of defunct objects orbiting the Earth. Examples of debris include non-operational satellites, rocket bodies, and fragments generated from explosions, collisions, or faulty payload assembly.

Loading next visibility...
Identifier
55552, 2022-151ZA
Orbit
SSO
Country
Flag of CNCN / PRC
Related business
Manufacturer
SAST
Mission
Spacecraft
Bus & Motor
Unknown
Mass
Unknown
Launch date (UTC)
2022-11-11 (4 years ago)
Launch vehicle
Unknown
Launch site
Taiyaun Space Center, China (TSC)
Object type
Payload
Rocket body
Debris
Shape & HBR
Unknown shape, 0.1 m
Radar Cross Section
Medium (>0.1 m² and <1 m²)

Expand to show TLE details & history
Last TLE update: 2 days ago

TLE from 2 days ago
0 CZ-6A DEB
1 55552U 22151ZA  26171.09089635  .00006570  00000-0  11319-2 0  9995
2 55552  98.6228 230.2046 0067737 292.5909  66.8137 14.67393755183959
Epoch: 2026-06-20T02:10Z
TLE epoch observation values (Epoch: 2026-06-20T02:10:53.444Z)
Latitude
-0.00003°
Longitude
-70.82858°
Altitude
653.857 km
Speed
7.541 km/s
True Right ascension
15h 20m 49s
True Declination
0° 00' 00"
Sunlit
Object was in full shadow at epoch
Visualization orbit readout
Latitude
Unknown
Longitude
Unknown
Altitude
Unknown
Speed
Unknown
Apparent Right ascension
Unknown
Apparent Declination
Unknown
Sunlit
N/A
Visualization observer readout
Local Sidereal Time
21:35:51
Azimuth
Unknown
Elevation
Unknown
Doppler factor
Unknown
Orbital elements
Apogee altitude
714.21 km
Perigee altitude
618.773 km
Semi-major axis
7,044.629 km
Eccentricity
0.00677
Inclination
98.6228°
RAAN
230.2046°
Arg. of periapsis
292.5909°
True anomaly
67.52958°
Mean anomaly
66.8137°
Eccentric anomaly
67.1714°
Mean motion
3.67076 °/min
Orbital period
98.07 mins
BSTAR
0.0011319
Loading maneuver chart data...
Computing Atmospheric mass density...
Loading historical data...
Loading historical data...
Loading historical data...
Loading historical data...
Loading historical data...
Loading historical data...
Loading historical data...

Documentation

Showing up to 5 results
|